Regional Weather Roundup
Issued by NWS

Home | Current Version | Previous Version | Graphics & Text | Print | Product List | Glossary On
Versions: 1 2 3 4 5 6 7 8 9 10 11 12 13 14 15 16 17 18 19 20 21 22 23 24 25 26 27 28 29 30 31 32 33 34 35 36 37 38 39 40 41 42 43 44 45 46 47 48 49 50
000
ASUS43 KMKX 021511
RWRWI

WISCONSIN REGIONAL WEATHER ROUNDUP
NATIONAL WEATHER SERVICE MILWAUKEE/SULLIVAN WI
1000 AM CDT SUN AUG 02 2015

NOTE: "FAIR" INDICATES FEW OR NO CLOUDS BELOW 12,000 FEET WITH NO
SIGNIFICANT WEATHER AND/OR OBSTRUCTIONS TO VISIBILITY.

WIZ001-002-006>008-014>016-023>028-021600-
NORTHWEST WISCONSIN

CITY           SKY/WX    TMP DP  RH WIND       PRES   REMARKS
SUPERIOR ARPT  CLOUDY    73  60  62 CALM      29.61F
ASHLAND        CLOUDY    74  65  73 S8        29.60F
HAYWARD        PTSUNNY   68  65  90 SW5       29.64F
SIREN          MOSUNNY   71  65  82 NW7       29.67R
CUMBERLAND     PTSUNNY   72  64  78 W6        29.66R
RICE LAKE      PTSUNNY   74  65  72 CALM      29.64F
CHETEK         PTSUNNY   74  66  76 SW3       29.63F
LADYSMITH      MOSUNNY   73  67  79 NW5       29.68F
EAU CLAIRE     SUNNY     78  66  66 SW14      29.64F HX  80
MENOMONIE      SUNNY     78  66  68 SW10      29.64F
NEW RICHMOND   SUNNY     77  65  66 SW14      29.63F
OSCEOLA        PTSUNNY   76  67  71 W9        29.67R
$$

WIZ003>005-009-010-017-018-021600-
NORTH CENTRAL WISCONSIN

CITY           SKY/WX    TMP DP  RH WIND       PRES   REMARKS
MANITOWISH WTR PTSUNNY   65  63  95 SE6       29.65F
ARBOR VITAE    TSTM      67  64  89 SW6       29.67S
WOODRUFF       TSTM      67  64  89 SW6       29.67S
RHINELANDER    CLOUDY    70  62  76 VRB6      29.68S
EAGLE RIVER    CLOUDY    71  61  72 CALM      29.66R
LAND O LAKES   RAIN      69  61  75 CALM      29.67S
PHILLIPS       CLOUDY    64  64  99 N3        29.68S
TOMAHAWK       CLOUDY    67  63  86 CALM      29.68F
MEDFORD        PTSUNNY   73  66  79 W9        29.67F
MERRILL        NOT AVBL
$$

WIZ029-030-035-036-043>047-021600-
CENTRAL WISCONSIN

CITY           SKY/WX    TMP DP  RH WIND       PRES   REMARKS
WAUSAU         CLOUDY    73  68  84 SW10      29.66F
MOSINEE        SUNNY     72  70  94 SW8       29.69F
MARSHFIELD     MOSUNNY   78  65  63 SW15      29.68F HX  80
STEVENS POINT  PTSUNNY   75  65  71 SW10G16   29.69F
WAUPACA        CLOUDY    80  67  64 SW9G16    29.70F HX  82
WAUTOMA        PTSUNNY   85  69  58 SW12      29.71F HX  89
WISC RAPIDS    MOSUNNY   81  65  58 W15G23    29.70F HX  83
CAMP DOUGLAS   MOSUNNY   82  73  74 W15       29.70F HX  88
$$

WIZ011>013-019>022-031-037>040-048>050-021600-
NORTHEAST WISCONSIN

CITY           SKY/WX    TMP DP  RH WIND       PRES   REMARKS
ANTIGO         CLOUDY    69  67  93 W10       29.69S
SHAWANO        CLOUDY    72  66  82 SW6G17    29.65F
OCONTO         CLOUDY    74  70  86 SW8       29.66F
STURGEON BAY   PTSUNNY   73  66  78 SW8       29.70F THUNDER
GREEN BAY      CLOUDY    74  68  81 SW7       29.67F
MANITOWOC      PTSUNNY   80  68  66 MISG      29.71S HX  83
APPLETON       PTSUNNY   75  66  73 SW12      29.72S
CLINTONVILLE   CLOUDY    72  68  88 SW7       29.67F
OSHKOSH        PTSUNNY   78  68  71 W7G16     29.72R HX  80
$$

WIZ032>034-041-042-053>061-021600-
SOUTHWEST WISCONSIN

CITY           SKY/WX    TMP DP  RH WIND       PRES   REMARKS
LA CROSSE      SUNNY     82  69  64 SW12      29.69F HX  85
SPARTA         SUNNY     81  66  59 W6G17     29.70F HX  83
VIROQUA        SUNNY     80  67  66 W13       29.75F HX  82
BOSCOBEL       SUNNY     83  67  58 SW13G20   29.75S HX  85
PRAIRIE DU CHI MOSUNNY   81  64  56 SW8       29.75S HX  82
PLATTEVILLE    MOSUNNY   79  69  71 SW17G23   29.78F HX  81
$$

WIZ056-057-062-063-064-067-068-021600-
SOUTH CENTRAL WISCONSIN

CITY           SKY/WX    TMP DP  RH WIND       PRES   REMARKS
REEDSBURG      MOSUNNY   81  69  65 W14G20    29.73S HX  84
BARABOO/DELLS  MOSUNNY   82  66  57 W15G22    29.74R HX  84
LONE ROCK      SUNNY     82  67  60 SW9G20    29.75F HX  84
MINERAL POINT  MOSUNNY   79  68  69 SW9G17    29.78F HX  81
MADISON        PTSUNNY   81  67  62 SW10G21   29.73F HX  83
MIDDLETON      MOSUNNY   81  65  58 SW15G24   29.75F HX  83
WATERTOWN      MOSUNNY   79  71  78 SW16G22   29.74F HX  82
MONROE         PTSUNNY   77  68  73 SW17G23   29.79F
JANESVILLE     PTSUNNY   82  66  57 SW17G23   29.78F HX  85
$$

WIZ051-052-058>065-066-070>072-021600-
SOUTHEAST WISCONSIN

CITY           SKY/WX    TMP DP  RH WIND       PRES   REMARKS
MILWAUKEE      PTSUNNY   83  68  60 SW23G29   29.75F HX  86
WAUKESHA       MOSUNNY   81  66  61 SW12G23   29.76F HX  83
MILWAUKEE/TIMM SUNNY     82  64  54 SW17G31   29.75F HX  84
RACINE         SUNNY     84  68  58 SW13G28   29.78F HX  87
BURLINGTON     SUNNY     80  67  63 SW10      29.78F HX  82
KENOSHA        SUNNY     83  70  64 SW15      29.78F HX  87
FOND DU LAC    PTSUNNY   79  70  74 W13       29.73R HX  82
SHEBOYGAN      LGT RAIN  78  69  73 W15       29.72S HX  80
WEST BEND      PTSUNNY   79  68  69 SW12G26   29.73F HX  81
JUNEAU         PTSUNNY   76  70  81 SW13      29.75F
$$

LSZ147-162-021600-
LAKE SUPERIOR

STATION/POSITION TIME  TEMP    WIND        PRES    WAVE
                       AIR SEA DIR/SP/G            HT/PER
                 (UTC) (F)     (DEG/KT/KT) (MB)    (FT/S)
W MID LAKE BUOY  1450   59 54  210/  8/ 10 1001.7F   1
DEVILS ISLAND    1500   66     230/  9/ 10 1002.6R
PORT WING        1400   72     180/  3/  5 1002.4
SAXON HARBOR     1420   67                 1002.7F
$$

LMZ867-665-643>646-021600-
LAKE MICHIGAN

STATION/POSITION TIME  TEMP    WIND        PRES    WAVE
                       AIR SEA DIR/SP/G            HT/PER
                 (UTC) (F)     (DEG/KT/KT) (MB)    (FT/S)
CHAMBERS ISLAND  1400   71     210/  6/ 11 1005.4R
S GREEN BAY BUOY 1500   69 65  200/ 10/ 14 1006.4
N MID LAKE BUOY  1450   67 68  170/  4/  4 1004.0F   2/ 4
NORTHPORT PIER   1400   73     310/  9/ 18 1005.1R
SISTER BAY       1414   73     260/ 16/ 19   N/A
ALGOMA LAKESHORE 1442          260/ 10/ 18   N/A
KEWAUNEE LAKESHO 1400   77     260/ 13/ 18 1004.8S
SHEBOYGAN LAKESH 1500   79     240/ 14/ 18 1005.9F
PORT WASHINGTON  1400   81     260/ 13/ 24 1007.1
ATWATER BUOY     1500   78 58  220/ 17/ 23 1008.4F
MILWAUKEE LAKESH 1400   78     250/ 15/ 21   N/A
KENOSHA   LAKESH 1500   82     250/ 18/ 29 1007.8F
$$

TC  - TEMPERATURE IN CELSIUS
VSB - VISIBILITY IN STATUTE MILES
WCI - WIND CHILL INDEX
HX  - HEAT INDEX



USA.gov is the U.S. government's official web portal to all federal, state and local government web resources and services.